Location: Br�ches
(47.2196°N, 3.5432°E)
Time: 15:27:28
(UTC+00:00)

Daily predictions for brighter satellites

Satellite Brightness Start Highest point End
(mag) Time Altitude Azimuth Time Altitude Azimuth Time Altitude Azimuth
YAOGAN 6 3.3 17:06:31 10° SE 17:09:50 33° ENE 17:13:08 10° N
H-2A R/B 2.9 17:06:41 10° SSE 17:10:33 84° WSW 17:14:29 10° NNW
Starlink V 4.2 17:08:36 10° WNW 17:11:30 28° N 17:14:22 10° ENE
ERBS 3.4 17:09:45 10° W 17:12:52 36° NNW 17:15:59 10° NE
Cosmos 2227 Rocket 2.2 17:07:46 10° SSW 17:13:24 74° ESE 17:19:03 10° NNE
Starlink H 4.2 17:10:51 10° WNW 17:13:45 28° N 17:16:38 10° ENE
IRS-1C Rocket 4.2 17:08:52 10° SSE 17:14:08 89° WSW 17:19:27 10° NNW
Cosmos 1602 Rocket 4.3 17:10:50 10° SSW 17:15:08 57° WNW 17:19:26 10° N
Starlink F 4.2 17:13:06 10° WNW 17:16:00 28° N 17:18:53 10° ENE
NOAA 12 4.1 17:11:25 10° SSE 17:16:37 71° ENE 17:21:51 10° N
Cosmos 2341 Rocket 4.1 17:11:45 10° S 17:18:03 70° E 17:24:21 10° NNE
Starlink G 4.2 17:15:20 10° WNW 17:18:13 28° N 17:21:07 10° ENE
SMAP 3.4 17:14:32 10° S 17:19:11 75° WSW 17:23:52 10° NNW
Starlink L 4.2 17:17:33 10° WNW 17:20:28 28° N 17:23:18 10° ENE
Starlink A 4.2 17:19:48 10° WNW 17:22:43 29° N 17:25:28 11° ENE
Starlink R 4.2 17:22:04 10° WNW 17:24:59 29° N 17:27:37 12° ENE
PSLV R/B 4.3 17:21:19 10° N 17:25:24 69° WNW 17:29:29 10° SSW
Cosmos 1626 4.1 17:22:43 10° SW 17:26:01 30° WNW 17:29:22 10° N
Starlink K 4.2 17:24:17 10° WNW 17:27:12 29° N 17:29:46 12° ENE
Cosmos 1943 4.3 17:24:05 10° N 17:28:34 23° NE 17:33:02 10° E
Cosmos 1953 Rocket 3.7 17:24:45 10° S 17:29:08 55° E 17:33:31 10° NNE
Starlink M 4.2 17:26:30 10° WNW 17:29:26 29° N 17:31:53 13° ENE
Cosmos 1339 Rocket 4.5 17:24:29 10° N 17:30:33 63° ENE 17:36:39 10° SSE
Cosmos 1328 4.2 17:26:51 10° SSE 17:30:40 44° E 17:34:30 10° NNE
CZ-4B R/B 4.3 17:29:45 10° NW 17:30:59 12° WNW 17:32:12 10° W
Iridium 96 3.5 17:29:23 10° N 17:31:49 65° E 17:34:23 10° S
COSMO-SKYMED 1 3.0 17:28:06 10° NNE 17:32:14 41° E 17:36:20 10° S
Cosmos 1842 Rocket 4.5 17:28:45 10° NNE 17:32:37 28° ENE 17:36:28 10° SE
Meteor 1-21 Rocket 4.3 17:27:05 10° S 17:32:44 89° ESE 17:38:32 10° NNE
CZ-4 R/B 1.9 17:29:13 10° SE 17:33:04 40° ENE 17:36:59 10° N
Cosmos 1758 Rocket 3.6 17:28:50 10° S 17:33:08 82° W 17:37:30 10° N
Starlink AR 3.9 17:33:17 10° NW 17:35:35 25° N 17:37:04 16° ENE
FengYun 1-2 T 4.3 17:30:44 10° SSE 17:36:20 68° ENE 17:41:58 10° N
ATLAS CENTAUR R/B 1.1 17:34:13 10° NW 17:38:17 69° NE 17:42:02 10° SE
Cosmos 2218 Rocket 4.1 17:33:57 10° S 17:40:12 63° E 17:46:33 10° NNE
Cosmos 44 Rocket 4.4 17:37:19 10° SSE 17:41:11 24° ESE 17:43:54 15° ENE
CSL-04 Debris 4.4 17:37:08 10° SE 17:42:14 45° ENE 17:47:22 10° N
SL-8 R/B 3.7 17:42:22 10° WSW 17:47:13 89° SSE 17:50:52 18° ENE
Shenzhou-11 Module 3.1 17:44:58 10° WSW 17:47:24 31° S 17:49:17 14° ESE
Cosmos 1959 Rocket 4.4 17:42:56 10° S 17:49:02 71° E 17:55:07 10° NNE
Cosmos 2251 Rocket 3.5 17:44:48 10° NNW 17:50:08 87° ENE 17:55:29 10° SSE
USA 116 4.0 17:53:21 21° ENE 17:54:37 29° E 17:57:23 10° SSE
Cosmos 1703 3.2 17:51:26 10° S 17:55:24 81° E 17:59:24 10° N
Cosmos 1825 Rocket 4.3 17:51:10 10° SSW 17:55:25 55° WNW 17:59:41 10° N
H-2A R/B 3.4 17:55:39 17° ENE 17:55:52 17° ENE 17:59:09 10° NNE
SKYMED 3 4.5 17:51:51 10° NNE 17:56:13 72° ESE 18:00:32 10° S
ATLAS 5 CENTAUR R/B 4.1 17:57:32 10° NW 17:59:59 13° N 18:02:35 10° NNE
Envisat 3.9 17:55:58 10° S 18:00:55 52° W 18:05:55 10° NNW
Cosmos 1356 Rocket 3.2 17:57:12 10° N 18:01:16 71° ENE 18:05:22 10° SSE
CSL-04 Rocket 3.7 17:55:54 10° SSE 18:01:20 63° ENE 18:06:50 10° N
Cosmos 1455 3.1 17:59:12 10° NNW 18:02:55 51° W 18:06:34 10° S
Cosmos 2221 2.9 17:59:47 10° N 18:03:51 40° ENE 18:07:56 10° SE
Cosmos 2366 rocket 4.0 18:00:49 10° S 18:07:03 89° W 18:13:24 10° N
USA 267 3.5 18:03:50 15° NE 18:09:21 65° NNW 18:15:47 10° WSW
Starlink T 3.7 18:08:20 10° NW 18:11:21 36° NNE 18:11:56 33° NE
Starlink N 3.6 18:10:21 10° NW 18:13:23 37° NNE 18:13:52 34° NE
Starlink Q 3.6 18:12:36 10° NW 18:15:39 38° NNE 18:16:03 36° NE
Starlink P 3.6 18:14:42 10° NW 18:17:45 38° NNE 18:18:04 37° NNE
ISS -3.0 18:15:09 10° W 18:18:25 43° N 18:19:20 34° NNE
Okean-O 4.2 18:14:24 10° SSW 18:18:33 38° W 18:22:42 10° NNW
Starlink U 3.5 18:16:48 10° NW 18:19:51 39° NNE 18:20:05 39° NNE
SKYMED 2 4.0 18:16:02 10° N 18:20:21 65° WNW 18:24:39 10° SSW
Cosmos 407 Rocket 3.7 18:16:18 10° NNW 18:21:25 47° ENE 18:24:47 20° SE
CZ-2D R/B 3.1 18:17:48 10° SSE 18:21:37 78° ENE 18:25:30 10° N
CENTAUR R/B 4.3 18:18:52 10° SE 18:19:01 10° SE 18:19:01 10° SE
Starlink B 3.5 18:18:55 10° NW 18:22:00 40° NNE 18:22:08 40° NNE
Cosmos 1190 Rocket 4.4 18:17:10 10° N 18:22:13 42° ENE 18:24:43 26° ESE
Cosmos 1869 4.0 18:19:05 10° N 18:22:05 33° NE 18:22:05 33° NE
Cosmos 1939 Rocket 2.7 18:22:07 10° SSE 18:26:04 87° ENE 18:30:06 10° NNW
NOSS 3-2 (A) 4.1 18:22:34 10° S 18:27:29 30° ESE 18:28:17 29° E
Starlink AS 3.6 18:27:23 10° NW 18:29:42 37° N 18:29:42 37° N
SL-16 R/B 3.7 18:25:09 10° NW 18:30:20 38° WSW 18:35:30 10° S
Starlink BA 3.7 18:27:37 10° NW 18:29:55 37° N 18:29:55 37° N
Starlink AU 3.7 18:27:50 10° NW 18:30:07 37° NNW 18:30:07 37° NNW
Starlink AT 3.7 18:28:04 10° NW 18:30:21 37° NNW 18:30:21 37° NNW
Starlink BB 3.7 18:28:17 10° NW 18:30:34 37° NNW 18:30:34 37° NNW
Starlink BC 3.7 18:28:30 10° NW 18:30:46 37° NNW 18:30:46 37° NNW
Starlink BK 3.7 18:28:43 10° NW 18:30:59 37° NNW 18:30:59 37° NNW
Starlink AY 3.7 18:28:58 10° NW 18:31:13 37° NNW 18:31:13 37° NNW
Starlink AW 3.7 18:29:09 10° NW 18:31:24 37° NNW 18:31:24 37° NNW
Starlink BJ 3.7 18:29:24 10° NW 18:31:39 37° NNW 18:31:39 37° NNW
Starlink AV 3.7 18:29:39 10° NW 18:31:53 37° NNW 18:31:53 37° NNW
Starlink BD 3.7 18:29:52 10° NW 18:32:05 37° NNW 18:32:05 37° NNW
Starlink BE 3.7 18:30:03 10° NW 18:32:19 37° NNW 18:32:19 37° NNW
Starlink BM 3.7 18:30:19 10° NW 18:32:31 36° NNW 18:32:31 36° NNW
Starlink AX 3.8 18:30:34 10° NW 18:32:45 36° NNW 18:32:45 36° NNW
Starlink BH 3.8 18:30:45 10° NW 18:32:56 36° NNW 18:32:56 36° NNW
Starlink AZ 3.8 18:30:58 10° NW 18:33:09 36° NNW 18:33:09 36° NNW
Starlink BG 3.8 18:31:12 10° NW 18:33:22 36° NNW 18:33:22 36° NNW
Starlink BF 3.8 18:31:25 10° NW 18:33:35 36° NNW 18:33:35 36° NNW
Starlink BL 3.8 18:31:36 10° NW 18:33:49 37° NNW 18:33:49 37° NNW
Starlink AH 3.8 18:31:51 10° NW 18:34:00 36° NNW 18:34:00 36° NNW
Starlink AC 3.8 18:32:06 10° NW 18:34:15 36° NNW 18:34:15 36° NNW
Starlink X 3.8 18:32:19 10° NW 18:34:27 36° NNW 18:34:27 36° NNW
YAOGAN 1 3.1 18:30:59 10° S 18:35:15 58° W 18:39:33 10° NNW
Starlink AE 3.8 18:32:28 10° NW 18:34:41 37° NNW 18:34:41 37° NNW
Starlink AQ 3.8 18:32:37 10° NW 18:34:46 36° NNW 18:34:46 36° NNW
Starlink Z 3.8 18:32:45 10° NW 18:34:52 35° NNW 18:34:52 35° NNW
Starlink AK 3.9 18:33:00 10° NW 18:35:06 35° NNW 18:35:06 35° NNW
Starlink AL 3.9 18:33:13 10° NW 18:35:20 35° NNW 18:35:20 35° NNW
Starlink AD 3.9 18:33:27 10° NW 18:35:33 35° NNW 18:35:33 35° NNW
Cosmos 1727 Rocket 4.3 18:30:14 10° NNW 18:36:21 66° W 18:42:26 10° S
Cosmos 2227 4.2 18:30:46 10° S 18:36:22 58° ESE 18:39:03 30° NE
Starlink Y 3.9 18:33:54 10° NW 18:35:58 35° NNW 18:35:58 35° NNW
Starlink AG 3.9 18:34:07 10° NW 18:36:11 35° NNW 18:36:11 35° NNW
Starlink W 3.9 18:34:16 10° NW 18:36:23 36° NNW 18:36:23 36° NNW
Starlink D 3.7 18:34:01 10° NW 18:36:42 43° N 18:36:42 43° N
Starlink AJ 3.9 18:34:33 10° NW 18:36:36 34° NNW 18:36:36 34° NNW
Starlink AM 3.9 18:35:01 10° NW 18:37:03 34° NNW 18:37:03 34° NNW
Starlink AP 3.9 18:35:14 10° NW 18:37:15 34° NNW 18:37:15 34° NNW
Starlink AA 4.0 18:35:29 10° NW 18:37:30 34° NNW 18:37:30 34° NNW
Starlink AF 4.0 18:35:40 10° NW 18:37:41 34° NNW 18:37:41 34° NNW
Starlink AB 4.0 18:35:55 10° NW 18:37:55 34° NNW 18:37:55 34° NNW
Starlink AN 4.0 18:36:08 10° NW 18:38:07 34° NNW 18:38:07 34° NNW
Starlink S 3.7 18:36:13 10° NW 18:38:50 42° NNW 18:38:50 42° NNW
SJ-11-01 4.4 18:39:25 41° ESE 18:40:35 51° ENE 18:45:10 10° N
Starlink C 3.8 18:38:22 10° NW 18:40:55 42° NNW 18:40:55 42° NNW
Cosmos 1603 3.6 18:38:00 10° NNW 18:43:43 86° ENE 18:48:56 12° SSE
Starlink E 3.9 18:40:36 10° WNW 18:43:03 41° NNW 18:43:03 41° NNW
Ariane Rocket 2.9 18:39:12 10° SSE 18:44:13 67° ENE 18:49:17 10° N
Cosmos 2297 Rocket 4.1 18:39:49 10° WSW 18:44:31 26° NW 18:49:15 10° N
USA 234 4.3 18:38:39 10° SSE 18:44:49 43° SW 18:51:00 10° WNW
ARGOS 3.8 18:46:24 35° NE 18:46:24 35° NE 18:50:28 10° N
Starlink J 4.0 18:42:49 10° WNW 18:45:12 39° NNW 18:45:12 39° NNW
Starlink V 4.1 18:45:01 10° WNW 18:47:19 38° NNW 18:47:19 38° NNW
Cosmos 1624 Rocket 4.2 18:43:22 10° S 18:48:11 46° ESE 18:48:11 46° ESE
Cosmos 2263 Rocket 2.2 18:44:37 10° S 18:50:02 57° ESE 18:51:06 48° ENE
Starlink H 4.2 18:47:15 10° WNW 18:49:29 37° NW 18:49:29 37° NW
Starlink F 4.3 18:49:29 10° WNW 18:51:38 35° NW 18:51:38 35° NW
Starlink G 4.4 18:51:43 10° WNW 18:53:47 34° NW 18:53:47 34° NW
CZ-2C R/B 3.8 18:57:36 38° NE 18:57:36 38° NE 19:01:48 10° N
ADEOS Rocket 3.3 18:49:49 10° NNE 18:56:40 77° ESE 19:04:08 10° S
Starlink L 4.5 18:53:56 10° WNW 18:55:56 33° NW 18:55:56 33° NW
Cosmos 2227 Rocket 4.2 18:53:34 10° W 18:58:03 24° NW 19:02:33 10° N
Cosmos 614 Rocket 4.0 18:54:05 10° NNW 18:59:19 81° WSW 19:02:55 21° SSE
Cosmos 2056 Rocket 3.6 18:59:08 10° S 19:03:46 58° SE 19:03:46 58° SE
USA 238 DEB 3.6 19:01:09 10° SSW 19:07:43 64° ESE 19:08:59 54° ENE
USA 238 3.6 19:01:17 10° SSW 19:07:50 63° ESE 19:09:02 54° ENE
CZ-4 R/B 4.1 19:05:09 10° SW 19:08:15 21° W 19:11:25 10° NW
Cosmos 1943 3.3 19:07:34 10° NNW 19:13:13 74° WSW 19:15:42 35° S
Cosmos 1821 Rocket 4.2 19:07:44 10° SSW 19:14:04 70° W 19:20:22 10° N
Cosmos 1023 Rocket 4.4 19:09:58 10° NNW 19:15:17 89° WSW 19:15:40 78° SSE
ATLAS CENTAUR R/B 4.3 19:14:46 10° W 19:16:34 13° WSW 19:18:18 10° SW
Timation 1 Rocket 4.2 19:12:47 10° SSW 19:18:46 85° ESE 19:19:34 68° NE
Cosmos 44 Rocket 3.8 19:17:43 10° SW 19:22:24 53° NW 19:22:39 52° NW
Cosmos 1140 Rocket 3.5 19:20:52 10° NNW 19:26:07 75° WSW 19:26:09 75° WSW
SL-8 R/B 4.3 19:25:05 10° W 19:28:50 54° WNW 19:28:50 54° WNW
H-2A R/B 2.8 19:36:15 45° NNW 19:36:15 45° NNW 19:39:50 10° NNW
Cosmos 2123 Rocket 4.3 19:33:56 10° NNW 19:40:11 65° W 19:46:21 10° S
Cosmos 967 Rocket 4.5 19:35:41 10° NW 19:41:54 82° NW 19:41:54 82° NW
Cosmos 1934 Rocket 4.2 19:39:30 10° SSW 19:45:30 64° WNW 19:51:32 10° N
ATLAS 5 CENTAUR R/B 4.2 19:43:05 10° NNW 19:44:43 15° N 19:44:43 15° N
USA 267 4.0 19:51:11 39° N 19:51:46 39° N 19:57:44 10° WNW
CENTAUR R/B 4.4 20:05:03 10° SSW 20:06:17 17° SSW 20:06:17 17° SSW
NOSS 3-2 (A) 4.5 20:12:04 10° WSW 20:15:45 39° WSW 20:15:45 39° WSW
Cosmos 2263 Rocket 4.1 20:29:33 10° WSW 20:32:52 25° WNW 20:32:52 25° WNW
